SL-3 R/B

Satellite information

Favourite Embed

Satellite Type and Status

ROCKET BODYIN ORBIT

Key statistics

Satellite SL-3 R/B at a glance.

Uptime

19261

Days in orbit

Revolutions

≈ 14.1

Per day

Orbit

LEO

Low Earth Orbit

Inclination

81.3

Latest

Satellite identification and parameters

Extended collection of information and parameters for SL-3 R/B.

Object identification

Identified? True

Debris? False

Object name: SL-3 R/B

International designator: 1973-015B

Object number (NORAD): 6393

Object ID (CCSDS): 6393

Country: COMMONWEALTH OF INDEPENDENT STATES (CIS)

Current information (Y/N): Y

RCS size: LARGE

Orbital parameters

Period: 102.461 minutes

Inclination: 81.2552 deg

SMA: 7253.26 km

Apoapsis: 917.07 km

Periapsis: 833.181 km

RAAN: 199.6271 deg

Eccentricy: 0.00578285

Argument of periapsis: 206.6389 deg

Mean anomaly: 153.1806 deg

Mean motion: 14.05409391 rev/day

Mean motion (dot): 0.00000061 rev/day2

B* drag term: 0.000029621109 1/REarth

Two-line elements (TLE)

Creation date: Dec. 12, 2025, 10:14 a.m.

Reference frame: TEME

Reference center: EARTH

Epoch: Dec. 12, 2025, 2:43 a.m. UTC

TLE line 0: 0 SL-3 R/B

TLE line 1: 1 06393U 73015B 25346.11359366 .00000061 00000-0 29621-4 0 9992

TLE line 2: 2 06393 81.2552 199.6271 0057829 206.6389 153.1806 14.05409391702050

Live tracking on map

Real-time ground track for satellite SL-3 R/B.

In-orbit conjunctions

A list of the most updated potential collisions computed for object SL-3 R/B.

Target Orbit TCA Probability of collision Miss distance Type
COSMOS 1275 DEB LEO 2025-11-29 03:55:11 0.0001341443 313.0 (m) DEBRIS
COSMOS 1275 DEB LEO 2025-10-28 07:48:50 0.0002646244 292.0 (m) DEBRIS
COSMOS 1275 DEB LEO 2025-10-03 18:16:55 0.0001194574 511.0 (m) DEBRIS
COSMOS 1275 DEB LEO 2024-12-20 10:15:54 0.0001157977 397.0 (m) DEBRIS
FENGYUN 1C DEB SSO 2024-11-11 07:40:08 0.0001448733 457.0 (m) DEBRIS

Associated space launch

The Meteor-1 series was the first series of Soviet meteorological satellites.

SL-3 R/B was lifted into orbit during the mission ‘Vostok 8A92M | Meteor-1 14 (29L)’, on board a Vostok 8A92M space rocket.

The launch took place on March 20, 1973, 11:20 a.m. from 41/1.

For more information about the launch, click the button.

Launch to space Vostok 8A92M | Meteor-1 14 (29L)
Vostok 8A92M | Meteor-1 14 (29L)

Agency: N/A

Status: Launch Successful

Launch date: March 20, 1973, 11:20 a.m. UTC

Rocket: Vostok 8A92M

Launch pad: 41/1

Location: Plesetsk Cosmodrome, Russian Federation

...

Latest news about this satellite

There are no fresh news available about this satellite. Check back as we update our databases every day.


Newsletter sign-up

Weekly statistics, charts and insights to help you stay on top of the space industry.